Regional Weather Roundup
Issued by NWS Jackson, KY

Home | Current Version | Previous Version | Text Only | Print | Product List | Glossary Off
Versions: 1 2 3 4 5 6 7 8 9 10 11 12 13 14 15 16 17 18 19 20 21 22 23 24 25 26 27 28 29 30 31 32 33 34 35 36 37 38 39 40 41 42 43 44 45 46 47 48 49 50

000
ASUS43 KJKL 271211
RWRJKL

EAST KENTUCKY HOURLY WEATHER ROUNDUP
NATIONAL WEATHER SERVICE JACKSON KY
700 AM EST SAT DEC 27 2014

NOTE: "FAIR" INDICATES FEW OR NO CLOUDS BELOW 12,000 FEET WITH
NO SIGNIFICANT WEATHER AND/OR OBSTRUCTIONS TO VISIBILITY.

* THESE REPORTS ARE NOT UNDER NWS QUALITY CONTROL AND MAY NOT
  REPORT WEATHER SUCH AS PRECIPITATION AND FOG.

KYZ079-080-083-085-087-088-110-112-115-119-120-271300
...EASTERN KENTUCKY...

CITY           SKY/WX    TMP DP  RH WIND       PRES   REMARKS
JACKSON        MOCLDY    45  25  45 SE3       30.23F
6HR MIN TEMP:  44; 6HR MAX TEMP:  47; 6HR PCP: TRACE;

LONDON         CLOUDY    45  31  58 CALM      30.23S
6HR MIN TEMP:  43; 6HR MAX TEMP:  45; 6HR PCP: TRACE;

SOMERSET*      CLOUDY    45  34  65 CALM      30.25R
MONTICELLO*    CLOUDY    44  38  79 CALM      30.26R
6HR MIN TEMP:  43; 6HR MAX TEMP:  45;

MIDDLESBORO*   MOCLDY    41  36  83 CALM      30.28R
6HR MIN TEMP:  40; 6HR MAX TEMP:  43;

HARLAN APT*    CLOUDY    45  28  53 NE3       30.26R
BLACK MTN*       N/A     45  10  24 S7          N/A
PIKEVILLE APT* PTCLDY    45  27  49 SE5       30.24R
BIG SANDY*     MOSUNNY   41  30  65 SE3       30.24S
6HR MIN TEMP:  41; 6HR MAX TEMP:  45;

MOREHEAD APT*  CLOUDY    45  30  57 SE5       30.25S
$$

KYZ035-036-041-042-044-050-067-078-099-271300
...CENTRAL KENTUCKY...

CITY           SKY/WX    TMP DP  RH WIND       PRES   REMARKS
MT STERLING*   CLOUDY    45  32  61 CALM      30.24R
FLEMING/MASON* CLOUDY    43  32  65 S5        30.23S
DANVILLE*      CLOUDY    45  32  61 S5        30.23R
RICHMOND*      CLOUDY    46  30  53 S5        30.22R
LEXINGTON      CLOUDY    45  35  68 S7        30.22R
6HR MIN TEMP:  44; 6HR MAX TEMP:  46;

FRANKFORT      CLOUDY    45  35  68 SE5       30.21R
6HR MIN TEMP:  45; 6HR MAX TEMP:  48;

$$

KYZ091>093-OHZ055-061-077-WVZ005-015-034-035-042-271300
...SOUTHERN OHIO/WEST VIRGINIA...

CITY           SKY/WX    TMP DP  RH WIND       PRES   REMARKS
COVINGTON      CLOUDY    44  32  62 S7        30.20R
COLUMBUS       CLOUDY    42  32  67 CALM      30.19R
DAYTON         CLOUDY    45  34  65 S15       30.18R
WILMINGTON     CLOUDY    41  33  73 SW8       30.19R
HUNTINGTON     CLOUDY    43  32  65 S3        30.23S
CHARLESTON     CLOUDY    38  33  82 SE3       30.25R
PINEVILLE*     PTCLDY    35  35  97 MISG      30.31R
BECKLEY        MOCLDY    39  20  46 CALM      30.25S
BLUEFIELD      PTCLDY    45  14  28 S3        30.26S
$$

VAZ002-007-008-TNZ017-027-036-066-071-271300
...SOUTHWEST VIRGINIA/EAST TENNESSEE...

CITY           SKY/WX    TMP DP  RH WIND       PRES   REMARKS
WISE*          CLOUDY    45  18  33 S5        30.25S
ABINGDON*      MOCLDY    40  30  65 CALM      30.28R
BRISTOL        PTCLDY    37  33  85 CALM      30.29R
KNOXVILLE      PTCLDY    37  34  89 N6        30.28R WCI  32
OAK RIDGE      CLEAR     36  34  92 CALM      30.29R
CROSSVILLE     CLOUDY    50  31  48 VRB5      30.25R
NASHVILLE      CLOUDY    48  41  76 SE5       30.21R
$$

...KEY TO REMARKS...
VSB - VISIBILITY IN MILES
WCI - WIND CHILL INDEX
HX  - HEAT INDEX

$$


USA.gov is the U.S. government's official web portal to all federal, state and local government web resources and services.